Regional Weather Roundup
Issued by NWS

Home | Current Version | Previous Version | Text Only | Print | Product List | Glossary Off
Versions: 1 2 3 4 5 6 7 8 9 10 11 12 13 14 15 16 17 18 19 20 21 22 23 24 25 26 27 28 29 30 31 32 33 34 35 36 37 38 39 40 41 42 43 44 45 46 47 48 49 50

000
ASUS44 KMEG 242100
RWRTN
TENNESSEE HOURLY STATE WEATHER ROUNDUP
NATIONAL WEATHER SERVICE MEMPHIS TN
400 PM CDT TUE MAY 24 2016

TNZ002-004-019-021-049-052-054-088>092-242200-
WEST TENNESSEE

CITY           SKY/WX    TMP DP  RH WIND       PRES   REMARKS
MEMPHIS INTL   PTSUNNY   87  65  47 SE13G18   30.01F
NWS MEMPHIS      N/A     89 N/A N/A MISG        N/A
JACKSON        PTSUNNY   83  61  47 S6        30.04F
DYERSBURG      CLOUDY    81  61  50 CALM        N/A
UNION CITY     SUNNY     82  61  47 SW7       30.03F
PARIS          SUNNY     82  57  42 S6        30.06F
LEXINGTON      MOSUNNY   86  55  35 S9        30.05F
$$

TNZ008-025-027-028-033-062-065-066-242200-
NORTH MIDDLE TENNESSEE

CITY           SKY/WX    TMP DP  RH WIND       PRES   REMARKS
NASHVILLE      MOSUNNY   86  51  29 S9G17     30.08S
CLARKSVILLE    CLOUDY    82  57  42 S3        30.07S
COOKEVILLE     SUNNY     86  54  32 CALM      30.10S
CROSSVILLE     SUNNY     78  49  35 CALM      30.14F
$$

TNZ061-075-076-078-094-096-097-242200-
SOUTH MIDDLE TENNESSEE

CITY           SKY/WX    TMP DP  RH WIND       PRES   REMARKS
TULLAHOMA      SUNNY     82  50  32 SW7       30.12S
WINCHESTER     MOSUNNY   84  52  32 S7        30.11S
MCMINNVILLE    SUNNY     84  52  32 SW6       30.11S
COLUMBIA       SUNNY     86  59  39 SW9       30.07S
SHELBYVILLE    SUNNY     88  54  31 VRB6      30.10S
$$

TNZ017-018-042-046-047-242200-
NORTHEAST TENNESSEE

CITY           SKY/WX    TMP DP  RH WIND       PRES   REMARKS
TRI CITIES     MOSUNNY   79  50  36 NW6       30.13F
$$

TNZ012-013-036-069-073-074-242200-
CENTRAL EAST TENNESSEE

CITY           SKY/WX    TMP DP  RH WIND       PRES   REMARKS
KNOXVILLE      MOSUNNY   81  47  30 W6        30.10F
OAK RIDGE      SUNNY     82  51  34 VRB3      30.10F
GATLINBURG     SUNNY     81  45  28 W9        30.10F
$$

TNZ083-085-099-242200-
SOUTHEAST TENNESSEE

CITY           SKY/WX    TMP DP  RH WIND       PRES   REMARKS
CHATTANOOGA    MOSUNNY   85  49  28 W3        30.09F
$$

SKY/WX REPORTED AS FAIR MEANS FEW OR NO CLOUDS BELOW
12 THOUSAND FEET.





USA.gov is the U.S. government's official web portal to all federal, state and local government web resources and services.